TimeEST,TemperatureF,Dew PointF,Humidity,Sea Level PressureIn,VisibilityMPH,Wind Direction,Wind SpeedMPH,Gust SpeedMPH,PrecipitationIn,Events,Conditions,WindDirDegrees,DateUTC
12:53 AM,37.0,30.0,76,30.22,10.0,SSW,6.9,-,N/A,,Overcast,200,2013-11-11 05:53:00
1:53 AM,39.0,30.0,70,30.17,10.0,SSW,8.1,-,N/A,,Overcast,200,2013-11-11 06:53:00
2:53 AM,39.9,30.0,68,30.16,10.0,WSW,9.2,-,N/A,,Overcast,240,2013-11-11 07:53:00
3:53 AM,39.9,30.0,68,30.13,10.0,SSW,10.4,-,N/A,,Overcast,210,2013-11-11 08:53:00
4:53 AM,41.0,30.0,65,30.12,10.0,SW,8.1,-,N/A,,Overcast,220,2013-11-11 09:53:00
5:53 AM,41.0,30.0,65,30.09,10.0,SSW,9.2,-,N/A,,Overcast,200,2013-11-11 10:53:00
6:53 AM,42.1,30.0,62,30.07,10.0,SSW,10.4,19.6,N/A,,Overcast,210,2013-11-11 11:53:00
7:53 AM,42.1,30.0,62,30.06,10.0,SW,9.2,-,N/A,,Overcast,220,2013-11-11 12:53:00
8:53 AM,43.0,30.9,62,30.07,10.0,SW,9.2,-,N/A,,Overcast,230,2013-11-11 13:53:00
9:43 AM,42.8,33.8,70,30.05,7.0,WSW,9.2,-,0.00,Rain,Light Rain,250,2013-11-11 14:43:00
9:53 AM,42.1,34.0,73,30.07,9.0,WSW,9.2,-,0.01,Rain,Light Rain,250,2013-11-11 14:53:00
10:37 AM,42.8,35.6,76,30.04,7.0,West,9.2,-,0.01,Rain,Light Rain,260,2013-11-11 15:37:00
10:53 AM,42.1,37.0,82,30.06,7.0,WSW,11.5,-,0.01,Rain,Light Rain,250,2013-11-11 15:53:00
11:09 AM,42.8,37.4,81,30.04,8.0,West,10.4,-,0.01,Rain,Light Rain,260,2013-11-11 16:09:00
11:53 AM,41.0,37.0,86,30.05,5.0,West,16.1,-,0.03,Rain,Light Rain,280,2013-11-11 16:53:00
12:01 PM,41.0,37.4,87,30.03,5.0,West,17.3,-,0.00,Rain,Light Rain,280,2013-11-11 17:01:00
12:48 PM,39.2,35.6,87,30.03,7.0,NW,13.8,20.7,0.02,Rain,Light Rain,310,2013-11-11 17:48:00
12:53 PM,39.9,36.0,86,30.06,6.0,NW,13.8,-,0.03,Rain,Light Rain,310,2013-11-11 17:53:00
1:53 PM,37.9,34.0,86,30.07,8.0,WNW,12.7,-,0.05,Rain,Light Rain,300,2013-11-11 18:53:00
2:32 PM,35.6,32.0,87,30.06,2.5,North,17.3,26.5,0.01,Snow,Light Snow,350,2013-11-11 19:32:00
2:39 PM,33.8,30.2,87,30.07,1.0,North,16.1,29.9,0.02,Snow,Light Snow,350,2013-11-11 19:39:00
2:53 PM,33.1,30.0,89,30.10,1.0,NNW,19.6,24.2,0.02,Snow,Light Snow,340,2013-11-11 19:53:00
3:53 PM,32.0,30.0,92,30.14,0.8,NNW,12.7,-,0.01,Snow,Light Snow,340,2013-11-11 20:53:00
4:03 PM,32.0,30.2,93,30.12,0.8,NNW,9.2,-,0.01,Snow,Light Snow,340,2013-11-11 21:03:00
4:10 PM,32.0,28.4,87,30.12,1.0,North,15.0,24.2,0.01,Snow,Light Snow,350,2013-11-11 21:10:00
4:17 PM,32.0,28.4,87,30.13,0.8,North,17.3,27.6,0.01,Snow,Light Snow,350,2013-11-11 21:17:00
4:28 PM,32.0,28.4,87,30.14,1.2,NNW,15.0,20.7,0.01,Snow,Light Snow,340,2013-11-11 21:28:00
4:48 PM,30.2,26.6,86,30.15,2.5,NNW,13.8,-,0.01,Snow,Light Snow,340,2013-11-11 21:48:00
4:53 PM,30.9,27.0,85,30.17,2.5,NNW,9.2,-,0.01,Snow,Light Snow,340,2013-11-11 21:53:00
5:10 PM,30.2,26.6,86,30.16,3.0,NNW,10.4,19.6,0.00,Snow,Light Snow,340,2013-11-11 22:10:00
5:53 PM,30.9,21.0,67,30.20,10.0,North,10.4,-,0.00,,Overcast,350,2013-11-11 22:53:00
6:53 PM,30.9,21.9,69,30.22,10.0,NNW,9.2,-,N/A,,Mostly Cloudy,330,2013-11-11 23:53:00
7:53 PM,30.0,19.9,66,30.25,10.0,NNW,8.1,-,N/A,,Partly Cloudy,340,2013-11-12 00:53:00
8:53 PM,28.9,18.0,64,30.28,10.0,NNW,10.4,19.6,N/A,,Clear,330,2013-11-12 01:53:00
9:53 PM,28.9,19.9,69,30.30,10.0,NNW,11.5,-,N/A,,Overcast,330,2013-11-12 02:53:00
10:53 PM,28.0,19.9,72,30.33,10.0,NNW,9.2,-,N/A,,Mostly Cloudy,330,2013-11-12 03:53:00
11:53 PM,28.0,19.9,72,30.34,10.0,NW,11.5,-,0.00,,Mostly Cloudy,310,2013-11-12 04:53:00